Showing default

LIZZIESAT, 59132

Orbit data source: Space-Track

LIZZIESAT, 59132 is a payload satellite owned by Sidus Space (US) in SSO that was launched on Mon, 04 Mar 2024 UTC via an FALCON 9 launch vehicle from the Air Force Western Test Range (AFWTR). Payloads include a variety of satellites, spacecraft, and rockets equipped with specific instruments for various scientific and technological missions. These include communications satellites like Starlink; space stations such as the ISS; scientific satellites like the Hubble; Earth observation satellites from companies like Planet Labs, Umbra, and HawkEye 360; GPS; miniature CubeSats for education and research; and military/defense satellites.

Loading next visibility...
LIZZIESAT details
Identifier
59132, 2024-043AL
Orbit
SSO
Last TLE update12 hours ago
Origin
Flag of USSidus Space (US)
ManufacturerSidus Space
MissionOperational Commercial Technology
Bus & MotorLIZZIESAT, Unknown motor
Mass~100 kg wet, ~100 kg dry
Launch date (UTC)
2024-03-04 (11 months ago)
Launch vehicle
FALCON 9
Launch site
Air Force Western Test Range (AFWTR)
Object type
Payload
Rocket body
Debris
Shape & HBROct Cyl + 8 Pan, 1.4 m
Radar Cross Section1.008 m², Medium (>0.1 m² and < 1m²)

Expand to show TLE details & history

TLE from 12 hours ago
0 LIZZIESAT
1 59132U 24043AL  25044.31332993  .00006422  00000-0  28384-3 0  9993
2 59132  97.4981 172.3083 0012312 156.9557 203.2234 15.21992521 52438
Epoch: 2025-02-13T07:31Z
Definitive object data (Epoch: 2025-02-13T07:31:11.705Z)
Latitude-0.00002°
Longitude-84.08171°
Altitude510.707 km
Speed7.604 km/s
True Right ascension11h 29m 13s
True Declination0° 00' 00"
Sunlit
Object was in full shadow at TLE epoch
Visualization TLE readout
Latitude-65.36714°
Longitude-66.98258°
Altitude531.053 km
Speed7.592 km/s
Apparent Right ascension11h 14m 59s
Apparent Declination-54° 02' 23"
Sunlit
Object is in daylight
Visualization observer readout
Local Sidereal Time22:26:59
Azimuth205.828° SW
Elevation-73.725°
Doppler factor1
Orbital elements
Apogee altitude505.263 km
Perigee altitude488.334 km
Semi-major axis6,874.935 km
Eccentricity0.0012312
Inclination97.4981°
RAAN172.3083°
Arg. of periapsis156.9557°
True anomaly203.16785°
Mean anomaly203.2234°
Eccentric anomaly203.19562°
Mean motion3.8075 °/min
BSTAR0.00028384
Orbital period94.55 mins
Loading maneuver chart data...
Loading historical data...
Loading historical data...
Loading historical data...
Loading historical data...
Loading historical data...
Loading historical data...
Loading historical data...

LIZZIESAT Visibility forecast

Observer location: undefined°, undefined

Span
Click to sort rows by Start time (UTC) header in descending order
Start Az.
Max El. time (UTC)
Max El. Az.
Max El.
End time (UTC)
End Az.
5 mins2025-02-13 20:43:04.765Z41.275° NE2025-02-13 20:45:04.765Z81.077° E25.204°2025-02-13 20:48:04.765Z152.983° SSE
5 mins2025-02-14 08:54:04.765Z201.193° SSW2025-02-14 08:56:04.765Z251.354° W31.754°2025-02-14 08:59:04.765Z327.077° NNW
|